,,Stat1,,Stat2,,Stat3,,Stat4,,Wind1,,Wind1,
time,status,PR1M_SUM,status,RH1M_AVG,status,SR1M_AVG,status,TA1M_AVG,status,W1dAve1m,status,W1sAve1m,
1999-11-27, 00:01:00,VALID,0,VALID,99.2233,VALID,0.0339617,VALID,20.2411,VALID,293,VALID,0.108724,
1999-11-27, 00:02:00,VALID,0,VALID,99.2691,VALID,0.0679233,VALID,20.2441,VALID,333,VALID,0.170673,
1999-11-27, 00:03:00,VALID,0,VALID,99.3644,VALID,0.0339617,VALID,20.2824,VALID,96,VALID,0.556377,
1999-11-27, 00:04:00,VALID,0,VALID,99.3276,VALID,0.0849042,VALID,20.2794,VALID,96,VALID,0.0933494,
1999-11-27, 00:05:01,VALID,0,VALID,99.2894,VALID,0.0509425,VALID,20.2729,VALID,96,VALID,0,
1999-11-27, 00:06:00,VALID,0,VALID,99.2691,VALID,0.101885,VALID,20.263,VALID,97,VALID,0,
1999-11-27, 00:07:00,VALID,0,VALID,99.278,VALID,0.0849042,VALID,20.2535,VALID,100,VALID,0,
1999-11-27, 00:08:00,VALID,0,VALID,99.3238,VALID,0.101885,VALID,20.2627,VALID,95,VALID,0.00126689,
1999-11-27, 00:09:00,VALID,0,VALID,99.3034,VALID,0.0849042,VALID,20.2727,VALID,102,VALID,1.11484,
1999-11-27, 00:10:00,VALID,0,VALID,99.3238,VALID,0.0849042,VALID,20.2893,VALID,100,VALID,1.20641,
1999-11-27, 00:11:00,VALID,0,VALID,99.3034,VALID,0.0849042,VALID,20.2769,VALID,95,VALID,0.774089,
1999-11-27, 00:12:00,VALID,0,VALID,99.3021,VALID,-0.0339617,VALID,20.2704,VALID,96,VALID,0.535156,
1999-11-27, 00:13:00,VALID,0,VALID,99.2805,VALID,-0.0169808,VALID,20.2712,VALID,94,VALID,0.387957,
1999-11-27, 00:14:00,VALID,0,VALID,99.2258,VALID,-0.0339617,VALID,20.2486,VALID,92,VALID,0.386402,
1999-11-27, 00:15:00,VALID,0,VALID,99.2131,VALID,0,VALID,20.2426,VALID,99,VALID,0.723357,
1999-11-27, 00:16:00,VALID,0,VALID,99.2131,VALID,-0.0169808,VALID,20.2588,VALID,105,VALID,0.736579,
1999-11-27, 00:17:00,VALID,0,VALID,99.2131,VALID,-0.0169808,VALID,20.2518,VALID,101,VALID,0.867969,
1999-11-27, 00:18:00,VALID,0,VALID,99.1928,VALID,-0.0509425,VALID,20.262,VALID,104,VALID,0.634615,
1999-11-27, 00:19:00,VALID,0,VALID,99.1839,VALID,0,VALID,20.258,VALID,106,VALID,0.635216,
1999-11-27, 00:20:00,VALID,0,VALID,99.1775,VALID,-0.0169808,VALID,20.2717,VALID,103,VALID,0.617788,
1999-11-27, 00:21:00,VALID,0,VALID,99.133,VALID,0,VALID,20.2448,VALID,102,VALID,0.632011,
1999-11-27, 00:22:00,VALID,0,VALID,99.1534,VALID,-0.0509425,VALID,20.2715,VALID,98,VALID,0.827455,
1999-11-27, 00:23:00,VALID,0,VALID,99.1445,VALID,-0.0509425,VALID,20.2777,VALID,103,VALID,0.88548,
1999-11-27, 00:24:00,VALID,0,VALID,99.1063,VALID,-0.0169808,VALID,20.2675,VALID,98,VALID,0.838049,
1999-11-27, 00:25:00,VALID,0,VALID,99.0351,VALID,-0.0169808,VALID,20.2518,VALID,92,VALID,1.16326,
1999-11-27, 00:26:00,VALID,0,VALID,98.9766,VALID,0,VALID,20.2558,VALID,91,VALID,1.04407,
1999-11-27, 00:27:00,VALID,0,VALID,98.9207,VALID,-0.0509425,VALID,20.2391,VALID,98,VALID,0.775586,
1999-11-27, 00:28:00,VALID,0,VALID,98.7477,VALID,-0.0339617,VALID,20.1772,VALID,93,VALID,1.79928,
1999-11-27, 00:29:00,VALID,0,VALID,98.5799,VALID,-0.0339617,VALID,20.1839,VALID,88,VALID,1.55228,
1999-11-27, 00:30:00,VALID,0,VALID,98.6409,VALID,-0.0679233,VALID,20.216,VALID,103,VALID,1.52244,
1999-11-27, 00:31:00,VALID,0,VALID,98.6346,VALID,-0.0339617,VALID,20.2389,VALID,52,VALID,0.727965,
1999-11-27, 00:32:00,VALID,0,VALID,98.6015,VALID,0,VALID,20.2294,VALID,280,VALID,0.0493304,
1999-11-27, 00:33:00,VALID,0,VALID,98.6167,VALID,-0.0339617,VALID,20.2324,VALID,93,VALID,0,
1999-11-27, 00:34:00,VALID,0,VALID,98.6422,VALID,-0.0339617,VALID,20.2289,VALID,97,VALID,0,
1999-11-27, 00:35:00,VALID,0,VALID,98.6778,VALID,-0.0169808,VALID,20.2351,VALID,112,VALID,0,
1999-11-27, 00:36:00,VALID,0,VALID,98.693,VALID,0,VALID,20.255,VALID,90,VALID,0,
1999-11-27, 00:37:00,VALID,0,VALID,98.5595,VALID,-0.0169808,VALID,20.2259,VALID,92,VALID,0,
1999-11-27, 00:38:00,VALID,0,VALID,98.454,VALID,-0.0169808,VALID,20.2058,VALID,60,VALID,0.0927484,
1999-11-27, 00:39:00,VALID,0,VALID,98.3701,VALID,-0.0169808,VALID,20.1831,VALID,230,VALID,0.341346,
1999-11-27, 00:40:00,VALID,0,VALID,98.281,VALID,0,VALID,20.1745,VALID,93,VALID,0.820313,
1999-11-27, 00:41:00,VALID,0,VALID,98.3014,VALID,0.0169808,VALID,20.171,VALID,98,VALID,0.740986,
1999-11-27, 00:42:00,VALID,0,VALID,98.3395,VALID,0.0849042,VALID,20.1598,VALID,87,VALID,0.13058,
1999-11-27, 00:43:00,VALID,0,VALID,98.2938,VALID,0.0849042,VALID,20.153,VALID,84,VALID,0.406441,
1999-11-27, 00:44:00,VALID,0,VALID,98.2798,VALID,0.0509425,VALID,20.153,VALID,71,VALID,0.225929,
1999-11-27, 00:45:00,VALID,0,VALID,98.2912,VALID,0.0679233,VALID,20.1635,VALID,137,VALID,0.265024,
1999-11-27, 00:46:00,VALID,0,VALID,98.3052,VALID,0.101885,VALID,20.1535,VALID,235,VALID,0.152444,
1999-11-27, 00:47:00,VALID,0,VALID,98.3154,VALID,0.0849042,VALID,20.1498,VALID,124,VALID,0.300391,
1999-11-27, 00:48:00,VALID,0,VALID,98.3217,VALID,0.0679233,VALID,20.1471,VALID,110,VALID,0.7498,
1999-11-27, 00:49:00,VALID,0,VALID,98.2887,VALID,0.0509425,VALID,20.1269,VALID,25,VALID,0.274639,
1999-11-27, 00:50:00,VALID,0,VALID,98.2035,VALID,0.0509425,VALID,20.1048,VALID,261,VALID,0.379808,
1999-11-27, 00:51:00,VALID,0,VALID,98.1958,VALID,0.0679233,VALID,20.1016,VALID,280,VALID,0.0394631,
1999-11-27, 00:52:00,VALID,0,VALID,98.2416,VALID,0.0339617,VALID,20.1118,VALID,243,VALID,0.309375,
1999-11-27, 00:53:00,VALID,0,VALID,98.2378,VALID,0.0509425,VALID,20.0953,VALID,136,VALID,0.095846,
1999-11-27, 00:54:00,VALID,0,VALID,98.2022,VALID,0.101885,VALID,20.0988,VALID,163,VALID,0.455448,
1999-11-27, 00:55:00,VALID,0,VALID,98.2035,VALID,0.0849042,VALID,20.0757,VALID,170,VALID,0.517428,
1999-11-27, 00:56:00,VALID,0,VALID,98.3243,VALID,0.0169808,VALID,20.0854,VALID,233,VALID,0.0288462,
1999-11-27, 00:57:00,VALID,0,VALID,98.2823,VALID,-0.0169808,VALID,20.0772,VALID,175,VALID,0,
1999-11-27, 00:58:00,VALID,0,VALID,98.3065,VALID,-0.0339617,VALID,20.0772,VALID,162,VALID,0,
1999-11-27, 00:59:00,VALID,0,VALID,98.4349,VALID,-0.0509425,VALID,20.0899,VALID,80,VALID,0,
1999-11-27, 01:00:00,VALID,0,VALID,98.4731,VALID,-0.0169808,VALID,20.0936,VALID,127,VALID,0,
1999-11-27, 01:01:00,VALID,0,VALID,98.2963,VALID,-0.0169808,VALID,20.0578,VALID,205,VALID,0.602564,
1999-11-27, 01:02:00,VALID,0,VALID,98.2823,VALID,-0.0849042,VALID,20.0621,VALID,294,VALID,0.353571,
1999-11-27, 01:03:00,VALID,0,VALID,98.3612,VALID,-0.0509425,VALID,20.0484,VALID,333,VALID,0.185023,
1999-11-27, 01:04:00,VALID,0,VALID,98.398,VALID,-0.0679233,VALID,20.0382,VALID,60,VALID,0.65435,
1999-11-27, 01:05:00,VALID,0,VALID,98.4667,VALID,-0.0169808,VALID,20.0416,VALID,23,VALID,0.729968,
1999-11-27, 01:06:00,VALID,0,VALID,98.5392,VALID,-0.0339617,VALID,20.0484,VALID,230,VALID,0.141226,
1999-11-27, 01:07:00,VALID,0,VALID,98.5544,VALID,-0.0339617,VALID,20.0454,VALID,164,VALID,0.483008,
1999-11-27, 01:08:00,VALID,0,VALID,98.5544,VALID,-0.0169808,VALID,20.0449,VALID,153,VALID,0.128005,
1999-11-27, 01:09:00,VALID,0,VALID,98.5506,VALID,-0.0169808,VALID,20.0352,VALID,161,VALID,0.0198317,
1999-11-27, 01:10:00,VALID,0,VALID,98.5913,VALID,-0.0339617,VALID,20.0521,VALID,155,VALID,0.489984,
1999-11-27, 01:11:00,VALID,0,VALID,98.5557,VALID,-0.0169808,VALID,20.0287,VALID,296,VALID,0.0252404,
1999-11-27, 01:12:00,VALID,0,VALID,98.6346,VALID,-0.0339617,VALID,20.0419,VALID,39,VALID,0,
1999-11-27, 01:13:00,VALID,0,VALID,98.5761,VALID,-0.0509425,VALID,20.0322,VALID,341,VALID,0,
1999-11-27, 01:14:00,VALID,0,VALID,98.5023,VALID,-0.0339617,VALID,19.9931,VALID,311,VALID,0.541385,
1999-11-27, 01:15:00,VALID,0,VALID,98.5087,VALID,-0.0339617,VALID,19.9705,VALID,328,VALID,0.300681,
1999-11-27, 01:16:00,VALID,0,VALID,98.5227,VALID,-0.0509425,VALID,19.9578,VALID,330,VALID,0.366787,
1999-11-27, 01:17:00,VALID,0,VALID,98.6333,VALID,-0.0169808,VALID,19.9641,VALID,63,VALID,0.593359,
1999-11-27, 01:18:00,VALID,0,VALID,98.7185,VALID,-0.0509425,VALID,19.9735,VALID,107,VALID,0.330128,
1999-11-27, 01:19:00,VALID,0,VALID,98.7248,VALID,-0.0169808,VALID,19.9805,VALID,25,VALID,0.340345,
1999-11-27, 01:20:00,VALID,0,VALID,98.6829,VALID,-0.0679233,VALID,19.9544,VALID,342,VALID,0.17508,
1999-11-27, 01:21:00,VALID,0,VALID,98.7566,VALID,-0.0169808,VALID,19.9608,VALID,116,VALID,0.194111,
1999-11-27, 01:22:00,VALID,0,VALID,98.8584,VALID,-0.0509425,VALID,19.9969,VALID,100,VALID,0.352902,
1999-11-27, 01:23:01,VALID,0,VALID,98.8698,VALID,-0.0339617,VALID,19.9937,VALID,92,VALID,0.463796,
1999-11-27, 01:24:00,VALID,0,VALID,98.9232,VALID,-0.0509425,VALID,20.0125,VALID,77,VALID,0.524493,
1999-11-27, 01:25:00,VALID,0,VALID,98.9512,VALID,-0.0339617,VALID,20.0061,VALID,288,VALID,0.0985577,
1999-11-27, 01:26:00,VALID,0,VALID,98.9385,VALID,-0.0339617,VALID,20.0096,VALID,277,VALID,0.0951522,
1999-11-27, 01:27:00,VALID,0,VALID,98.9092,VALID,0,VALID,20.0031,VALID,234,VALID,0,
1999-11-27, 01:28:00,VALID,0,VALID,98.9359,VALID,0.0339617,VALID,20.0023,VALID,149,VALID,0.291266,
1999-11-27, 01:29:00,VALID,0,VALID,98.8889,VALID,0,VALID,19.9931,VALID,195,VALID,0.105168,
1999-11-27, 01:30:00,VALID,0,VALID,98.8812,VALID,0,VALID,19.9802,VALID,115,VALID,0.777244,
1999-11-27, 01:31:00,VALID,0,VALID,98.9677,VALID,0,VALID,19.9862,VALID,92,VALID,1.26583,
1999-11-27, 01:32:00,VALID,0,VALID,99.0008,VALID,0.0339617,VALID,19.9931,VALID,354,VALID,0.649554,
1999-11-27, 01:33:01,VALID,0,VALID,98.9677,VALID,0.0169808,VALID,19.9705,VALID,299,VALID,0.225038,
1999-11-27, 01:34:00,VALID,0,VALID,98.983,VALID,0.0169808,VALID,19.9541,VALID,273,VALID,0.551309,
1999-11-27, 01:35:00,VALID,0,VALID,99.1381,VALID,0.0169808,VALID,19.9837,VALID,72,VALID,0.673678,
1999-11-27, 01:36:00,VALID,0,VALID,99.203,VALID,0,VALID,20.0066,VALID,89,VALID,0.558093,
1999-11-27, 01:37:00,VALID,0,VALID,99.2996,VALID,0,VALID,20.0354,VALID,100,VALID,1.14648,
1999-11-27, 01:38:00,VALID,0,VALID,99.3327,VALID,0,VALID,20.0489,VALID,94,VALID,1.47776,
1999-11-27, 01:39:00,VALID,0,VALID,99.3365,VALID,0,VALID,20.0317,VALID,98,VALID,1.26943,
1999-11-27, 01:40:00,VALID,0,VALID,99.3339,VALID,0,VALID,20.016,VALID,87,VALID,1.60897,
1999-11-27, 01:41:00,VALID,0,VALID,99.3276,VALID,0.0169808,VALID,19.9767,VALID,102,VALID,1.26182,
1999-11-27, 01:42:00,VALID,0,VALID,99.3848,VALID,0,VALID,19.984,VALID,94,VALID,1.36696,
1999-11-27, 01:43:00,VALID,0,VALID,99.4179,VALID,0.0339617,VALID,19.9673,VALID,94,VALID,1.19017,
1999-11-27, 01:44:00,VALID,0,VALID,99.4331,VALID,0.0169808,VALID,19.9738,VALID,99,VALID,0.920608,
1999-11-27, 01:45:01,VALID,0,VALID,99.4395,VALID,0,VALID,19.9675,VALID,80,VALID,0.209535,
1999-11-27, 01:46:00,VALID,0,VALID,99.4509,VALID,0,VALID,19.9549,VALID,78,VALID,0,
1999-11-27, 01:47:00,VALID,0,VALID,99.484,VALID,0,VALID,19.9613,VALID,95,VALID,0,
1999-11-27, 01:48:00,VALID,0,VALID,99.5501,VALID,0,VALID,19.9805,VALID,104,VALID,0,
1999-11-27, 01:49:00,VALID,0,VALID,99.5298,VALID,-0.0169808,VALID,19.9745,VALID,121,VALID,0.442308,
1999-11-27, 01:50:00,VALID,0,VALID,99.4611,VALID,-0.101885,VALID,19.9208,VALID,90,VALID,1.27825,
1999-11-27, 01:51:00,VALID,0,VALID,99.5056,VALID,-0.101885,VALID,19.9208,VALID,129,VALID,0.511819,
1999-11-27, 01:52:00,VALID,0,VALID,99.5018,VALID,-0.101885,VALID,19.8914,VALID,128,VALID,1.37634,
1999-11-27, 01:53:00,VALID,0,VALID,99.5158,VALID,-0.118866,VALID,19.8725,VALID,101,VALID,1.31936,
1999-11-27, 01:54:00,VALID,0,VALID,99.545,VALID,-0.118866,VALID,19.8492,VALID,96,VALID,0.873311,
1999-11-27, 01:55:00,VALID,0,VALID,99.5717,VALID,-0.118866,VALID,19.8492,VALID,100,VALID,0.671875,
1999-11-27, 01:56:01,VALID,0,VALID,99.6111,VALID,-0.0849042,VALID,19.8785,VALID,109,VALID,0.613782,
1999-11-27, 01:57:00,VALID,0,VALID,99.6264,VALID,0,VALID,19.8641,VALID,114,VALID,0.472656,
1999-11-27, 01:58:00,VALID,0,VALID,99.6849,VALID,0,VALID,19.874,VALID,168,VALID,0.363582,
1999-11-27, 01:59:00,VALID,0,VALID,99.6696,VALID,-0.0169808,VALID,19.8579,VALID,190,VALID,0.329127,
1999-11-27, 02:00:00,VALID,0,VALID,99.6696,VALID,0,VALID,19.8315,VALID,201,VALID,0.0693109,
1999-11-27, 02:01:00,VALID,0,VALID,99.6976,VALID,0,VALID,19.835,VALID,243,VALID,0.0240385,
1999-11-27, 02:02:00,VALID,0,VALID,99.6887,VALID,0,VALID,19.8188,VALID,242,VALID,0,
1999-11-27, 02:03:00,VALID,0,VALID,99.718,VALID,0,VALID,19.829,VALID,242,VALID,0,
1999-11-27, 02:04:00,VALID,0,VALID,99.7459,VALID,0,VALID,19.8322,VALID,220,VALID,0,
1999-11-27, 02:05:00,VALID,0,VALID,99.7943,VALID,0,VALID,19.8581,VALID,177,VALID,0,
1999-11-27, 02:06:00,VALID,0,VALID,99.8095,VALID,-0.0169808,VALID,19.8574,VALID,145,VALID,0,
1999-11-27, 02:07:01,VALID,0,VALID,99.8171,VALID,0.0169808,VALID,19.8673,VALID,97,VALID,0,
1999-11-27, 02:08:00,VALID,0,VALID,99.7663,VALID,0.0169808,VALID,19.8218,VALID,86,VALID,0,
1999-11-27, 02:09:00,VALID,0,VALID,99.7269,VALID,0.0169808,VALID,19.7768,VALID,86,VALID,0,
1999-11-27, 02:10:00,VALID,0,VALID,99.737,VALID,0,VALID,19.7768,VALID,86,VALID,0,
1999-11-27, 02:11:00,VALID,0,VALID,99.7637,VALID,0,VALID,19.7865,VALID,89,VALID,0,
1999-11-27, 02:12:00,VALID,0,VALID,99.8197,VALID,-0.0679233,VALID,19.832,VALID,104,VALID,0,
1999-11-27, 02:13:00,VALID,0,VALID,99.8286,VALID,-0.0339617,VALID,19.8414,VALID,116,VALID,0.353659,
1999-11-27, 02:14:00,VALID,0,VALID,99.8006,VALID,-0.0679233,VALID,19.8362,VALID,125,VALID,0.714527,
1999-11-27, 02:15:00,VALID,0,VALID,99.765,VALID,-0.0339617,VALID,19.8161,VALID,107,VALID,0.594551,
1999-11-27, 02:16:00,VALID,0,VALID,99.723,VALID,-0.0169808,VALID,19.7865,VALID,111,VALID,0.436699,
1999-11-27, 02:17:00,VALID,0,VALID,99.7205,VALID,-0.0169808,VALID,19.7997,VALID,84,VALID,0.263086,
1999-11-27, 02:18:01,VALID,0,VALID,99.6887,VALID,0,VALID,19.8029,VALID,77,VALID,0,
1999-11-27, 02:19:00,VALID,0,VALID,99.6836,VALID,-0.0169808,VALID,19.7895,VALID,76,VALID,0.000200321,
1999-11-27, 02:20:00,VALID,0,VALID,99.6735,VALID,-0.0339617,VALID,19.7994,VALID,59,VALID,0.0797276,
1999-11-27, 02:21:00,VALID,0,VALID,99.6874,VALID,-0.0169808,VALID,19.8031,VALID,51,VALID,0.386619,
1999-11-27, 02:22:00,VALID,0,VALID,99.6722,VALID,0,VALID,19.8126,VALID,62,VALID,0.472556,
1999-11-27, 02:23:00,VALID,0,VALID,99.6951,VALID,0,VALID,19.8255,VALID,77,VALID,0.310785,
1999-11-27, 02:24:00,VALID,0,VALID,99.7002,VALID,-0.0509425,VALID,19.8317,VALID,62,VALID,0.461993,
1999-11-27, 02:25:00,VALID,0,VALID,99.6175,VALID,-0.0169808,VALID,19.8031,VALID,49,VALID,0.435697,
1999-11-27, 02:26:00,VALID,0,VALID,99.615,VALID,-0.0169808,VALID,19.7895,VALID,83,VALID,0,
1999-11-27, 02:27:00,VALID,0,VALID,99.6518,VALID,-0.0339617,VALID,19.832,VALID,91,VALID,0,
1999-11-27, 02:28:00,VALID,0,VALID,99.6582,VALID,-0.0509425,VALID,19.8417,VALID,99,VALID,0.0010016,
1999-11-27, 02:29:01,VALID,0,VALID,99.6925,VALID,-0.0339617,VALID,19.8743,VALID,95,VALID,0,
1999-11-27, 02:30:00,VALID,0,VALID,99.6938,VALID,-0.0169808,VALID,19.8964,VALID,109,VALID,0,
1999-11-27, 02:31:00,VALID,0,VALID,99.6824,VALID,0,VALID,19.8964,VALID,102,VALID,0,
1999-11-27, 02:32:00,VALID,0,VALID,99.6709,VALID,-0.0169808,VALID,19.8932,VALID,100,VALID,0,
1999-11-27, 02:33:00,VALID,0,VALID,99.7129,VALID,-0.0169808,VALID,19.919,VALID,99,VALID,0,
1999-11-27, 02:34:00,VALID,0,VALID,99.6671,VALID,-0.0169808,VALID,19.9096,VALID,99,VALID,0,
1999-11-27, 02:35:00,VALID,0,VALID,99.648,VALID,-0.0169808,VALID,19.8967,VALID,100,VALID,0,
1999-11-27, 02:36:00,VALID,0,VALID,99.6417,VALID,-0.0169808,VALID,19.8904,VALID,101,VALID,0,
1999-11-27, 02:37:00,VALID,0,VALID,99.6162,VALID,-0.0339617,VALID,19.884,VALID,101,VALID,0,
1999-11-27, 02:38:00,VALID,0,VALID,99.6162,VALID,0,VALID,19.8775,VALID,101,VALID,0,
1999-11-27, 02:39:00,VALID,0,VALID,99.6111,VALID,-0.0339617,VALID,19.8678,VALID,101,VALID,0,
1999-11-27, 02:40:00,VALID,0,VALID,99.634,VALID,-0.0169808,VALID,19.8676,VALID,101,VALID,0,
1999-11-27, 02:41:00,VALID,0,VALID,99.69,VALID,0,VALID,19.8897,VALID,104,VALID,0,
1999-11-27, 02:42:00,VALID,0,VALID,99.7281,VALID,-0.0169808,VALID,19.9287,VALID,114,VALID,0,
1999-11-27, 02:43:00,VALID,0,VALID,99.7205,VALID,-0.0169808,VALID,19.9419,VALID,127,VALID,0.283727,
1999-11-27, 02:44:00,VALID,0,VALID,99.6989,VALID,-0.0339617,VALID,19.9317,VALID,124,VALID,0.733108,
1999-11-27, 02:45:00,VALID,0,VALID,99.6722,VALID,-0.0169808,VALID,19.9026,VALID,121,VALID,0.692508,
1999-11-27, 02:46:00,VALID,0,VALID,99.676,VALID,-0.0169808,VALID,19.9064,VALID,117,VALID,0.6248,
1999-11-27, 02:47:00,VALID,0,VALID,99.6773,VALID,-0.0679233,VALID,19.8972,VALID,110,VALID,0.60918,
1999-11-27, 02:48:00,VALID,0,VALID,99.6849,VALID,0,VALID,19.9029,VALID,94,VALID,0.221955,
1999-11-27, 02:49:00,VALID,0,VALID,99.7154,VALID,0,VALID,19.9064,VALID,91,VALID,0,
1999-11-27, 02:50:00,VALID,0,VALID,99.6773,VALID,-0.0169808,VALID,19.8967,VALID,110,VALID,0,
1999-11-27, 02:51:00,VALID,0,VALID,99.6518,VALID,0,VALID,19.874,VALID,100,VALID,0,
1999-11-27, 02:52:00,VALID,0,VALID,99.6429,VALID,-0.0169808,VALID,19.8576,VALID,122,VALID,0,
1999-11-27, 02:53:00,VALID,0,VALID,99.6022,VALID,-0.0339617,VALID,19.829,VALID,118,VALID,0,
1999-11-27, 02:54:00,VALID,0,VALID,99.6239,VALID,-0.0339617,VALID,19.8255,VALID,107,VALID,0,
1999-11-27, 02:55:00,VALID,0,VALID,99.6328,VALID,-0.0169808,VALID,19.8258,VALID,93,VALID,0,
1999-11-27, 02:56:00,VALID,0,VALID,99.6735,VALID,0,VALID,19.8447,VALID,86,VALID,0,
1999-11-27, 02:57:00,VALID,0,VALID,99.6544,VALID,0,VALID,19.8151,VALID,85,VALID,0,
1999-11-27, 02:58:00,VALID,0,VALID,99.648,VALID,0,VALID,19.832,VALID,77,VALID,0.272236,
1999-11-27, 02:59:00,VALID,0,VALID,99.6226,VALID,-0.0169808,VALID,19.7997,VALID,77,VALID,0.682893,
1999-11-27, 03:00:00,VALID,0,VALID,99.6162,VALID,0,VALID,19.79,VALID,82,VALID,0.410457,
1999-11-27, 03:01:00,VALID,0,VALID,99.6302,VALID,0,VALID,19.79,VALID,83,VALID,0.332532,
1999-11-27, 03:02:00,VALID,0,VALID,99.6493,VALID,-0.0339617,VALID,19.79,VALID,91,VALID,0.0118304,
1999-11-27, 03:03:00,VALID,0,VALID,99.6544,VALID,-0.0509425,VALID,19.7865,VALID,102,VALID,0,
1999-11-27, 03:04:00,VALID,0,VALID,99.7014,VALID,-0.0339617,VALID,19.8064,VALID,101,VALID,0,
1999-11-27, 03:05:00,VALID,0,VALID,99.7052,VALID,-0.0169808,VALID,19.8255,VALID,153,VALID,0.0434696,
1999-11-27, 03:06:00,VALID,0,VALID,99.6175,VALID,0,VALID,19.7932,VALID,160,VALID,0.632813,
1999-11-27, 03:07:00,VALID,0,VALID,99.6226,VALID,-0.0169808,VALID,19.7611,VALID,156,VALID,0.341602,
1999-11-27, 03:08:00,VALID,0,VALID,99.6429,VALID,-0.0169808,VALID,19.738,VALID,166,VALID,0.591146,
1999-11-27, 03:09:00,VALID,0,VALID,99.6735,VALID,0,VALID,19.7507,VALID,152,VALID,0.385417,
1999-11-27, 03:10:00,VALID,0,VALID,99.6671,VALID,-0.0339617,VALID,19.7447,VALID,161,VALID,0.0320513,
1999-11-27, 03:11:00,VALID,0,VALID,99.6874,VALID,0,VALID,19.7315,VALID,163,VALID,0,
1999-11-27, 03:12:00,VALID,0,VALID,99.718,VALID,-0.0169808,VALID,19.7676,VALID,163,VALID,0,
1999-11-27, 03:13:00,VALID,0,VALID,99.7714,VALID,0,VALID,19.7733,VALID,163,VALID,0,
1999-11-27, 03:14:00,VALID,0,VALID,99.7803,VALID,0,VALID,19.8029,VALID,163,VALID,0,
1999-11-27, 03:15:00,VALID,0,VALID,99.7879,VALID,-0.0339617,VALID,19.8188,VALID,147,VALID,0,
1999-11-27, 03:16:00,VALID,0,VALID,99.7854,VALID,-0.0169808,VALID,19.8387,VALID,124,VALID,0,
1999-11-27, 03:17:00,VALID,0,VALID,99.7688,VALID,-0.0339617,VALID,19.825,VALID,96,VALID,0.202734,
1999-11-27, 03:18:00,VALID,0,VALID,99.7815,VALID,-0.0169808,VALID,19.8382,VALID,94,VALID,0.769231,
1999-11-27, 03:19:00,VALID,0,VALID,99.793,VALID,-0.0849042,VALID,19.8541,VALID,86,VALID,0.859976,
1999-11-27, 03:20:00,VALID,0,VALID,99.7803,VALID,-0.0339617,VALID,19.8651,VALID,93,VALID,0.723758,
1999-11-27, 03:21:00,VALID,0,VALID,99.7675,VALID,0,VALID,19.8514,VALID,90,VALID,0.300481,
1999-11-27, 03:22:00,VALID,0,VALID,99.7599,VALID,-0.0169808,VALID,19.8519,VALID,109,VALID,0,
1999-11-27, 03:23:01,VALID,0,VALID,99.7091,VALID,-0.0339617,VALID,19.8126,VALID,117,VALID,0,
1999-11-27, 03:24:00,VALID,0,VALID,99.6722,VALID,-0.0169808,VALID,19.7865,VALID,162,VALID,0,
1999-11-27, 03:25:00,VALID,0,VALID,99.6735,VALID,0,VALID,19.7571,VALID,220,VALID,0,
1999-11-27, 03:26:00,VALID,0,VALID,99.6836,VALID,0,VALID,19.7708,VALID,218,VALID,0,
1999-11-27, 03:27:00,VALID,0,VALID,99.6824,VALID,0.0849042,VALID,19.7534,VALID,228,VALID,0,
1999-11-27, 03:28:00,VALID,0,VALID,99.6874,VALID,0.101885,VALID,19.7365,VALID,228,VALID,0,
1999-11-27, 03:29:00,VALID,0,VALID,99.6811,VALID,0.0679233,VALID,19.7203,VALID,214,VALID,0,
1999-11-27, 03:30:00,VALID,0,VALID,99.6824,VALID,0.101885,VALID,19.7009,VALID,218,VALID,0,
1999-11-27, 03:31:00,VALID,0,VALID,99.6785,VALID,0.0679233,VALID,19.6985,VALID,222,VALID,0,
1999-11-27, 03:32:00,VALID,0,VALID,99.6938,VALID,0.0849042,VALID,19.698,VALID,239,VALID,0,
1999-11-27, 03:33:01,VALID,0,VALID,99.7167,VALID,0.0679233,VALID,19.6982,VALID,239,VALID,0,
1999-11-27, 03:34:00,VALID,0,VALID,99.7129,VALID,0.0169808,VALID,19.6947,VALID,239,VALID,0,
1999-11-27, 03:35:00,VALID,0,VALID,99.7192,VALID,0.0849042,VALID,19.695,VALID,246,VALID,0,
1999-11-27, 03:36:00,VALID,0,VALID,99.7192,VALID,0.0679233,VALID,19.6915,VALID,256,VALID,0,
1999-11-27, 03:37:00,VALID,0,VALID,99.7027,VALID,0.0679233,VALID,19.6888,VALID,262,VALID,0.214453,
1999-11-27, 03:38:00,VALID,0,VALID,99.7052,VALID,0.0679233,VALID,19.6888,VALID,245,VALID,0.391827,
1999-11-27, 03:39:00,VALID,0,VALID,99.6963,VALID,0.0849042,VALID,19.6756,VALID,240,VALID,0.48137,
1999-11-27, 03:40:00,VALID,0,VALID,99.7027,VALID,0.0849042,VALID,19.6659,VALID,236,VALID,0.299679,
1999-11-27, 03:41:00,VALID,0,VALID,99.7243,VALID,0.0679233,VALID,19.6756,VALID,232,VALID,0.452925,
1999-11-27, 03:42:00,VALID,0,VALID,99.7192,VALID,-0.0849042,VALID,19.6669,VALID,226,VALID,0.507143,
1999-11-27, 03:43:00,VALID,0,VALID,99.7052,VALID,-0.0509425,VALID,19.6604,VALID,226,VALID,0.570313,
1999-11-27, 03:44:00,VALID,0,VALID,99.7103,VALID,-0.0679233,VALID,19.6544,VALID,219,VALID,0.565667,
1999-11-27, 03:45:00,VALID,0,VALID,99.7218,VALID,-0.0339617,VALID,19.6577,VALID,203,VALID,0.595753,
1999-11-27, 03:46:00,VALID,0,VALID,99.7523,VALID,0,VALID,19.6475,VALID,192,VALID,0.190905,
1999-11-27, 03:47:00,VALID,0,VALID,99.7536,VALID,0,VALID,19.6706,VALID,226,VALID,0.135742,
1999-11-27, 03:48:00,VALID,0,VALID,99.7701,VALID,-0.0169808,VALID,19.6703,VALID,278,VALID,0.182893,
1999-11-27, 03:49:00,VALID,0,VALID,99.7675,VALID,-0.0169808,VALID,19.6671,VALID,254,VALID,0,
1999-11-27, 03:50:00,VALID,0,VALID,99.7866,VALID,0,VALID,19.6835,VALID,249,VALID,0,
1999-11-27, 03:51:00,VALID,0,VALID,99.7841,VALID,-0.0169808,VALID,19.6796,VALID,239,VALID,0,
1999-11-27, 03:52:00,VALID,0,VALID,99.7536,VALID,-0.0169808,VALID,19.6736,VALID,237,VALID,0,
1999-11-27, 03:53:00,VALID,0,VALID,99.765,VALID,-0.0339617,VALID,19.6708,VALID,237,VALID,0,
1999-11-27, 03:54:00,VALID,0,VALID,99.7688,VALID,-0.0509425,VALID,19.6743,VALID,237,VALID,0,
1999-11-27, 03:55:00,VALID,0,VALID,99.7777,VALID,-0.0169808,VALID,19.6641,VALID,237,VALID,0,
1999-11-27, 03:56:00,VALID,0,VALID,99.779,VALID,-0.0509425,VALID,19.6604,VALID,237,VALID,0,
1999-11-27, 03:57:00,VALID,0,VALID,99.7587,VALID,-0.0509425,VALID,19.6579,VALID,253,VALID,0,
1999-11-27, 03:58:00,VALID,0,VALID,99.7599,VALID,-0.0679233,VALID,19.6415,VALID,252,VALID,0,
1999-11-27, 03:59:00,VALID,0,VALID,99.7447,VALID,0,VALID,19.6413,VALID,250,VALID,0,
1999-11-27, 04:00:00,VALID,0,VALID,99.7243,VALID,-0.0679233,VALID,19.6253,VALID,232,VALID,0,
1999-11-27, 04:01:00,VALID,0,VALID,99.7091,VALID,-0.0509425,VALID,19.6059,VALID,236,VALID,0,
1999-11-27, 04:02:00,VALID,0,VALID,99.7269,VALID,-0.0169808,VALID,19.6062,VALID,232,VALID,0.104911,
1999-11-27, 04:03:00,VALID,0,VALID,99.7002,VALID,-0.0679233,VALID,19.59,VALID,228,VALID,1.04573,
1999-11-27, 04:04:00,VALID,0,VALID,99.7091,VALID,-0.0679233,VALID,19.5836,VALID,223,VALID,0.822213,
1999-11-27, 04:05:00,VALID,0,VALID,99.7103,VALID,-0.0509425,VALID,19.5768,VALID,229,VALID,0.745393,
1999-11-27, 04:06:00,VALID,0,VALID,99.7294,VALID,-0.0509425,VALID,19.5701,VALID,247,VALID,0.421675,
1999-11-27, 04:07:01,VALID,0,VALID,99.7319,VALID,-0.0339617,VALID,19.5903,VALID,240,VALID,0.551367,
1999-11-27, 04:08:00,VALID,0,VALID,99.7269,VALID,-0.0679233,VALID,19.5771,VALID,236,VALID,0.610577,
1999-11-27, 04:09:00,VALID,0,VALID,99.7116,VALID,-0.0849042,VALID,19.5741,VALID,218,VALID,0.744191,